OneWeb SL0228

operational
NORAD ID: 48780 Int'l Des: 2021-045 Owner: ONEWEBN Country: UK Constellation: oneweb
LEOCIRCULARPOLARONEWEB_TYPE

Über OneWeb SL0228

Beschreibung wird geladen...

Live-Position

3D-Globus wird geladen...

Nächste Überflüge

Höhenverlauf

Altitude vs Time

uPlot chart will show altitude changes over time

Zweizeiliger Elementsatz

1 48780U 21045P 25352.38295693 .00000118 00000-0 27857-3 0 9993
2 48780 87.9005 295.2471 0001893 74.8502 285.2837 13.15547351220559
Epoch: 18. Dez. 2025 • Age: 14 hours

Aktueller Status

Höhe 1214.5 km
Geschwindigkeit 7.25 km/s
Subsatellitenpunkt -32.91°S, 148.47°W
Startdatum 28. Mai 2021
Alter 4.5 years
Typ internet

Technische Details

Klassifizierung Payload
Masse 148.00 kg
Trockenmasse 140.00 kg
Gesamtmasse 148.00 kg
Länge 1.30 m
Durchmesser 1.00 m
Spannweite 5.00 m
Form Trapezoid+2 pan
Hersteller ONEWUS
Bus-Typ ARROW
Phasenstatus In Orbit
Besitzer/Staat ONEWEBN/UK

Große Konstellationen

Loading constellations...